"startDT [UTC]","vpos","CH4 [ppm]","stdev(CH4) [ppm]","CO2 [ppm]","stdev(CO2) [ppm]","H2O_reported [%]","stdev(H2O_reported)","CavityPressure [torr]","CavityTemp [C]","OutletValve","CH4_dry [ppm]","CO2_dry [ppm]","DasTemp [C]","EtalonTemp [C]","WarmBoxTemp [C]","MPVPosition","T_ECpre [C]","T_EC1 [C]","T_EC2 [C]","p_inlet [hPa]","p_in [hPa]","p_out [hPa]","T_inlet [C]","RH_inlet [%]","dwpt_inlet [C]","T_vent [C]","RH_vent [%]","dwpt_vent [C]","flow_vent [l min-1]","flow_inlet [l min-1]","dwpt_sample [C]","T_room [C]"
2016-05-27 00:00:00,3.0,1.87743,0.00912,398.628,1.977,0.1410,0.2327,139.977,45.000,31340.69188,1.88130,399.507,34.125,45.071,45.000,0.00,0.09,-272.78,-272.83,-6,493,-939,21.6,20.7,-1.9,21.4,21.3,-1.7,5.73,2.09,-8.1,27.1
2016-05-27 00:01:00,3.0,1.87639,0.00039,397.176,0.079,0.0239,0.0015,139.999,45.000,31323.38392,1.87680,397.286,34.125,45.071,45.000,0.00,0.09,-272.77,-272.84,-5,492,-939,21.6,20.8,-1.8,21.4,21.4,-1.6,5.73,1.72,-8.0,27.1
2016-05-27 00:02:00,3.0,1.87664,0.00037,397.475,0.064,0.0220,0.0023,139.997,45.000,31315.16424,1.87706,397.577,34.125,45.071,45.000,0.00,0.09,-272.79,-272.84,-7,492,-939,21.6,20.6,-1.9,21.4,21.3,-1.7,5.73,2.05,-8.1,27.1
2016-05-27 00:03:00,3.0,1.87642,0.00038,397.583,0.034,0.0186,0.0027,140.002,45.000,31314.25879,1.87677,397.673,34.125,45.071,45.000,0.00,0.09,-272.77,-272.84,-6,493,-939,21.6,20.6,-2.0,21.4,21.2,-1.7,5.73,1.89,-8.0,27.1
2016-05-27 00:04:00,3.0,1.87627,0.00046,397.602,0.026,0.0153,0.0027,140.001,45.000,31312.28900,1.87656,397.675,34.123,45.071,45.000,0.00,0.09,-272.78,-272.82,-6,492,-939,21.6,20.5,-2.0,21.4,21.2,-1.7,5.73,1.84,-8.0,27.1
2016-05-27 00:05:00,3.0,1.87655,0.00032,397.638,0.033,0.0118,0.0021,139.999,45.000,31309.45387,1.87677,397.694,34.107,45.071,45.000,0.00,0.09,-272.78,-272.83,-7,493,-939,21.6,20.7,-1.9,21.4,21.3,-1.7,5.73,2.08,-8.0,27.1
2016-05-27 00:06:00,3.0,1.87644,0.00043,397.650,0.031,0.0094,0.0024,140.001,45.000,31309.15753,1.87663,397.695,34.100,45.071,45.000,0.00,0.09,-272.78,-272.84,-6,493,-939,21.6,20.6,-1.9,21.4,21.3,-1.7,5.73,1.72,-8.0,27.1
2016-05-27 00:07:00,3.0,1.87649,0.00046,397.638,0.029,0.0072,0.0015,139.998,45.000,31307.49108,1.87660,397.672,34.088,45.071,45.000,0.00,0.09,-272.78,-272.83,-6,493,-939,21.6,20.6,-1.9,21.4,21.3,-1.6,5.73,2.11,-8.0,27.1
2016-05-27 00:08:00,3.0,1.87643,0.00035,397.660,0.030,0.0057,0.0020,140.000,45.000,31307.08253,1.87654,397.688,34.100,45.071,45.000,0.00,0.09,-272.77,-272.83,-7,493,-939,21.6,20.7,-1.8,21.4,21.3,-1.6,5.73,1.80,-8.0,27.1
2016-05-27 00:09:00,3.0,1.87632,0.00037,397.654,0.030,0.0051,0.0017,140.000,45.000,31307.09618,1.87642,397.678,34.124,45.071,45.000,0.00,0.09,-272.79,-272.83,-6,493,-939,21.6,20.8,-1.8,21.5,21.4,-1.5,5.73,1.93,-8.0,27.1
2016-05-27 00:10:00,3.0,1.87660,0.00040,397.680,0.029,0.0045,0.0026,140.000,45.000,31305.86925,1.87668,397.702,34.125,45.071,45.000,0.00,0.09,-272.77,-272.84,-6,493,-939,21.6,20.7,-1.8,21.4,21.4,-1.5,5.73,2.01,-8.0,27.1
2016-05-27 00:11:00,3.0,1.87670,0.00038,397.672,0.021,0.0039,0.0025,139.999,45.000,31304.05464,1.87677,397.691,34.127,45.071,45.000,0.00,0.09,-272.77,-272.83,-7,493,-939,21.6,20.6,-1.9,21.5,21.2,-1.6,5.73,1.75,-8.0,27.1
2016-05-27 00:12:00,3.0,1.87661,0.00027,397.677,0.026,0.0031,0.0019,139.999,45.000,31305.97483,1.87664,397.692,34.126,45.071,45.000,0.00,0.09,-272.79,-272.84,-6,493,-939,21.6,20.5,-1.9,21.5,21.2,-1.7,5.73,2.12,-8.0,27.1
2016-05-27 00:13:00,3.0,1.87666,0.00039,397.684,0.031,0.0035,0.0016,139.999,45.000,31306.30734,1.87674,397.699,34.122,45.071,45.000,0.00,0.09,-272.77,-272.84,-7,494,-939,21.6,20.6,-1.9,21.4,21.2,-1.7,5.73,1.74,-8.0,27.1
2016-05-27 00:14:00,3.0,1.87659,0.00034,397.697,0.031,0.0023,0.0020,139.999,45.000,31307.39732,1.87662,397.708,34.118,45.071,45.000,0.00,0.09,-272.78,-272.83,-7,494,-939,21.7,20.6,-1.9,21.5,21.2,-1.6,5.73,2.03,-8.0,27.1
2016-05-27 00:15:00,3.0,1.87643,0.00038,397.687,0.036,0.0022,0.0018,140.000,45.000,31308.78305,1.87647,397.698,34.119,45.071,45.000,0.00,0.09,-272.77,-272.84,-6,493,-939,21.7,20.6,-1.9,21.5,21.2,-1.6,5.73,1.91,-8.0,27.2
2016-05-27 00:16:00,3.0,1.87650,0.00039,397.693,0.033,0.0023,0.0016,140.001,45.000,31309.53951,1.87654,397.704,34.125,45.071,45.000,0.00,0.09,-272.78,-272.84,-7,494,-939,21.7,20.6,-1.9,21.5,21.2,-1.6,5.73,1.82,-8.0,27.1
2016-05-27 00:17:00,3.0,1.87651,0.00037,397.710,0.035,0.0013,0.0018,140.000,45.000,31310.15971,1.87655,397.717,34.125,45.071,45.000,0.00,0.09,-272.78,-272.83,-7,494,-939,21.7,20.5,-1.9,21.5,21.2,-1.6,5.73,2.09,-8.0,27.2
2016-05-27 00:18:00,3.0,1.87657,0.00039,397.706,0.025,0.0013,0.0013,140.001,45.000,31310.41819,1.87658,397.713,34.125,45.071,45.000,0.00,0.09,-272.77,-272.83,-6,494,-939,21.7,20.7,-1.8,21.5,21.3,-1.6,5.73,1.71,-8.0,27.2
2016-05-27 00:19:00,3.0,1.87682,0.00047,397.696,0.027,0.0006,0.0019,140.000,45.000,31309.72716,1.87683,397.698,34.128,45.071,45.000,0.00,0.09,-272.79,-272.84,-7,494,-939,21.7,20.8,-1.7,21.5,21.4,-1.5,5.73,2.11,-8.0,27.2
2016-05-27 00:20:00,0.0,1.90071,0.00883,402.799,1.969,0.5673,0.2340,140.021,45.000,31548.90300,1.91036,405.428,34.126,45.071,45.000,0.00,0.09,-272.77,-272.84,-8,528,-939,21.7,20.8,-1.7,21.5,21.4,-1.5,5.73,1.85,-8.0,27.2
2016-05-27 00:21:00,0.0,1.90308,0.00048,403.403,0.052,0.6901,0.0026,140.001,45.000,31571.15072,1.91630,406.825,34.130,45.071,45.000,0.00,0.09,-272.77,-272.83,-7,529,-938,21.7,20.7,-1.8,21.5,21.4,-1.5,5.73,1.81,-8.0,27.2
2016-05-27 00:22:00,0.0,1.90271,0.00023,403.366,0.029,0.6943,0.0025,139.999,45.000,31578.59326,1.91599,406.807,34.134,45.071,45.000,0.00,0.09,-272.78,-272.84,-8,530,-938,21.8,20.7,-1.8,21.5,21.3,-1.5,5.73,2.13,-8.0,27.2
2016-05-27 00:23:00,0.0,1.90265,0.00038,403.319,0.032,0.6944,0.0029,140.000,45.000,31585.77243,1.91593,406.762,34.171,45.071,45.000,0.00,0.09,-272.77,-272.84,-9,530,-938,21.8,20.6,-1.8,21.6,21.3,-1.5,5.73,1.89,-8.0,27.2
2016-05-27 00:24:00,0.0,1.90243,0.00030,403.314,0.034,0.6997,0.0029,140.001,45.000,31590.71690,1.91582,406.781,34.177,45.071,45.000,0.00,0.09,-272.77,-272.83,-7,530,-939,21.8,20.7,-1.7,21.6,21.4,-1.4,5.73,1.81,-8.0,27.2
2016-05-27 00:25:00,0.0,1.90251,0.00042,403.279,0.020,0.7056,0.0027,139.999,45.000,31592.72807,1.91600,406.777,34.157,45.070,45.000,0.00,0.09,-272.78,-272.83,-8,530,-938,21.8,20.9,-1.6,21.6,21.5,-1.4,5.73,2.14,-8.0,27.2
2016-05-27 00:26:00,0.0,1.90243,0.00028,403.245,0.041,0.7117,0.0023,139.999,45.000,31595.40807,1.91606,406.774,34.146,45.071,45.000,0.00,0.09,-272.77,-272.85,-9,531,-938,21.8,21.0,-1.5,21.6,21.7,-1.2,5.73,1.89,-8.0,27.2
2016-05-27 00:27:00,0.0,1.90198,0.00043,403.252,0.038,0.7126,0.0023,139.999,45.000,31598.97331,1.91562,406.786,34.139,45.071,45.000,0.00,0.09,-272.77,-272.83,-8,531,-939,21.8,21.1,-1.5,21.6,21.7,-1.2,5.73,1.81,-8.0,27.2
2016-05-27 00:28:00,0.0,1.90218,0.00041,403.279,0.032,0.7149,0.0032,140.000,45.000,31598.58926,1.91585,406.824,34.141,45.071,45.000,0.00,0.09,-272.78,-272.83,-7,531,-938,21.8,21.1,-1.4,21.6,21.8,-1.2,5.73,2.14,-8.0,27.2
2016-05-27 00:29:00,0.0,1.90222,0.00030,403.240,0.035,0.7163,0.0015,140.000,45.000,31602.23959,1.91594,406.793,34.130,45.071,45.000,0.00,0.09,-272.78,-272.85,-8,531,-939,21.8,21.1,-1.4,21.6,21.8,-1.1,5.73,1.87,-8.0,27.2
2016-05-27 00:30:00,0.0,1.90215,0.00041,403.238,0.027,0.7135,0.0020,139.998,45.000,31604.02858,1.91583,406.777,34.125,45.071,45.000,0.00,0.09,-272.78,-272.83,-9,531,-938,21.8,21.1,-1.5,21.6,21.8,-1.2,5.73,1.82,-8.0,27.2
2016-05-27 00:31:00,0.0,1.90219,0.00037,403.230,0.031,0.7156,0.0025,139.998,45.000,31606.56861,1.91585,406.778,34.128,45.071,45.000,0.00,0.09,-272.77,-272.83,-8,531,-938,21.8,21.1,-1.4,21.6,21.8,-1.2,5.73,2.14,-8.0,27.2
2016-05-27 00:32:00,0.0,1.90196,0.00040,403.211,0.039,0.7215,0.0020,140.002,45.000,31607.84780,1.91578,406.791,34.123,45.071,45.000,0.00,0.09,-272.78,-272.84,-7,531,-938,21.8,21.3,-1.3,21.6,21.9,-1.1,5.73,1.87,-8.0,27.2
2016-05-27 00:33:00,0.0,1.90216,0.00046,403.215,0.035,0.7217,0.0019,140.000,45.000,31607.88632,1.91599,406.794,34.125,45.071,45.000,0.00,0.09,-272.78,-272.84,-9,531,-939,21.8,21.3,-1.3,21.6,21.9,-1.0,5.73,1.82,-8.0,27.3
2016-05-27 00:34:00,0.0,1.90191,0.00044,403.211,0.037,0.7216,0.0022,140.002,45.000,31610.21354,1.91576,406.790,34.127,45.071,45.000,0.00,0.09,-272.77,-272.83,-8,531,-938,21.8,21.3,-1.3,21.6,21.9,-1.1,5.73,2.13,-8.0,27.2
2016-05-27 00:35:00,0.0,1.90187,0.00036,403.184,0.042,0.7276,0.0027,140.001,45.000,31611.34407,1.91575,406.793,34.146,45.071,45.000,0.00,0.09,-272.77,-272.83,-7,531,-938,21.8,21.4,-1.2,21.6,22.1,-1.0,5.73,1.87,-7.9,27.2
2016-05-27 00:36:00,0.0,1.90189,0.00024,403.209,0.034,0.7265,0.0029,139.997,45.000,31611.33469,1.91580,406.811,34.180,45.071,45.000,0.00,0.09,-272.78,-272.84,-8,531,-939,21.8,21.4,-1.2,21.6,22.1,-1.0,5.73,1.82,-8.0,27.2
2016-05-27 00:37:00,0.0,1.90214,0.00038,403.217,0.047,0.7238,0.0019,140.003,45.000,31613.64942,1.91598,406.808,34.170,45.071,45.000,0.00,0.09,-272.78,-272.83,-9,531,-938,21.8,21.3,-1.3,21.6,22.0,-1.0,5.73,2.13,-7.9,27.2
2016-05-27 00:38:00,0.0,1.90184,0.00042,403.170,0.043,0.7221,0.0021,139.999,45.000,31613.25453,1.91570,406.752,34.174,45.070,45.000,0.00,0.09,-272.76,-272.84,-8,531,-938,21.8,21.2,-1.3,21.6,21.9,-1.1,5.73,1.87,-7.9,27.2
2016-05-27 00:39:00,0.0,1.90182,0.00047,403.150,0.031,0.7232,0.0022,140.000,45.000,31615.03002,1.91564,406.736,34.179,45.070,45.000,0.00,0.09,-272.78,-272.84,-7,531,-939,21.8,21.3,-1.3,21.6,21.9,-1.1,5.73,1.83,-7.9,27.3
2016-05-27 00:40:00,0.0,1.90170,0.00041,403.150,0.031,0.7294,0.0026,139.999,45.000,31614.89959,1.91565,406.769,34.187,45.071,45.000,0.00,0.09,-272.78,-272.83,-8,531,-938,21.8,21.4,-1.2,21.6,22.0,-1.0,5.73,2.13,-7.9,27.2
2016-05-27 00:41:00,0.0,1.90187,0.00033,403.147,0.033,0.7283,0.0020,139.998,45.000,31614.18471,1.91585,406.759,34.188,45.071,45.000,0.00,0.09,-272.76,-272.83,-9,532,-938,21.8,21.4,-1.2,21.6,22.1,-1.0,5.73,1.85,-7.9,27.2
2016-05-27 00:42:00,0.0,1.90204,0.00039,403.203,0.027,0.7253,0.0022,140.002,45.000,31615.40773,1.91589,406.801,34.185,45.071,45.000,0.00,0.09,-272.78,-272.84,-8,532,-938,21.8,21.3,-1.3,21.6,22.0,-1.0,5.73,1.85,-7.9,27.3
2016-05-27 00:43:00,0.0,1.90202,0.00043,403.161,0.028,0.7255,0.0022,139.999,45.000,31616.15749,1.91592,406.760,34.187,45.071,45.000,0.00,0.09,-272.79,-272.84,-7,532,-938,21.8,21.3,-1.3,21.6,22.0,-1.0,5.73,2.13,-7.9,27.3
2016-05-27 00:44:00,0.0,1.90177,0.00037,403.181,0.040,0.7253,0.0023,139.999,45.000,31618.51567,1.91567,406.778,34.197,45.071,45.000,0.00,0.09,-272.77,-272.84,-9,532,-938,21.8,21.3,-1.3,21.6,22.0,-1.0,5.73,1.84,-7.9,27.3
2016-05-27 00:45:00,0.0,1.90166,0.00038,403.145,0.032,0.7286,0.0023,139.999,45.000,31618.42076,1.91560,406.758,34.230,45.071,45.000,0.00,0.09,-272.78,-272.83,-9,532,-939,21.8,21.4,-1.2,21.6,22.0,-1.0,5.73,1.86,-7.9,27.3
2016-05-27 00:46:00,0.0,1.90195,0.00043,403.174,0.035,0.7270,0.0038,139.999,45.000,31618.72136,1.91585,406.781,34.240,45.070,45.000,0.00,0.09,-272.79,-272.84,-7,532,-939,21.8,21.3,-1.3,21.6,22.1,-1.0,5.73,2.14,-7.9,27.3
2016-05-27 00:47:00,0.0,1.90186,0.00049,403.200,0.027,0.7225,0.0021,139.999,45.000,31619.08511,1.91572,406.782,34.247,45.070,45.000,0.00,0.09,-272.77,-272.84,-7,532,-935,21.8,21.2,-1.3,21.6,21.9,-1.1,5.73,1.82,-7.9,27.3
2016-05-27 00:48:00,0.0,1.90182,0.00041,403.159,0.025,0.7304,0.0027,139.999,45.000,31619.95119,1.91581,406.782,34.248,45.071,45.000,0.00,0.09,-272.77,-272.83,-8,531,-939,21.8,21.5,-1.2,21.6,22.1,-1.0,5.73,1.87,-7.9,27.3
2016-05-27 00:49:00,0.0,1.90182,0.00037,403.147,0.032,0.7347,0.0018,140.001,45.000,31619.14372,1.91588,406.792,34.249,45.070,45.000,0.00,0.09,-272.78,-272.84,-7,532,-938,21.8,21.5,-1.1,21.6,22.2,-0.9,5.73,2.13,-7.9,27.3
2016-05-27 00:50:00,0.0,1.90152,0.00042,403.130,0.025,0.7305,0.0024,140.001,45.000,31621.88704,1.91553,406.754,34.251,45.071,45.000,0.00,0.09,-272.77,-272.84,-8,532,-938,21.8,21.4,-1.2,21.6,22.2,-0.9,5.73,1.81,-7.9,27.3
2016-05-27 00:51:00,0.0,1.90168,0.00037,403.157,0.024,0.7305,0.0020,139.999,45.000,31619.70812,1.91563,406.780,34.251,45.071,45.000,0.00,0.09,-272.77,-272.83,-7,531,-938,21.8,21.4,-1.2,21.6,22.1,-1.0,5.73,1.90,-7.9,27.3
2016-05-27 00:52:00,0.0,1.90162,0.00025,403.174,0.036,0.7320,0.0014,140.000,45.000,31620.48381,1.91564,406.805,34.252,45.071,45.000,0.00,0.09,-272.78,-272.84,-6,529,-939,21.8,21.5,-1.2,21.6,22.1,-1.0,5.73,2.13,-7.9,27.3
2016-05-27 00:53:00,0.0,1.90164,0.00034,403.162,0.035,0.7318,0.0021,140.000,45.000,31622.24291,1.91566,406.793,34.250,45.071,45.000,0.00,0.09,-272.77,-272.85,-10,532,-939,21.8,21.5,-1.2,21.6,22.1,-0.9,5.73,1.79,-7.9,27.3
2016-05-27 00:54:00,0.0,1.90124,0.00037,403.176,0.030,0.7282,0.0020,140.002,45.000,31624.43977,1.91519,406.789,34.250,45.071,45.000,0.00,0.09,-272.77,-272.83,-6,533,-938,21.8,21.4,-1.3,21.6,22.1,-1.0,5.73,1.92,-7.9,27.3
2016-05-27 00:55:00,0.0,1.90137,0.00041,403.187,0.041,0.7309,0.0024,139.998,45.000,31622.12458,1.91536,406.813,34.250,45.071,45.000,0.00,0.09,-272.77,-272.84,-7,530,-938,21.8,21.4,-1.2,21.6,22.1,-1.0,5.73,2.12,-7.9,27.3
2016-05-27 00:56:00,0.0,1.90159,0.00030,403.180,0.027,0.7307,0.0024,140.000,45.000,31622.09995,1.91557,406.805,34.250,45.071,45.000,0.00,0.09,-272.78,-272.84,-9,528,-938,21.8,21.5,-1.2,21.6,22.2,-0.9,5.73,1.78,-7.9,27.3
2016-05-27 00:57:00,0.0,1.90163,0.00030,403.203,0.024,0.7265,0.0029,139.999,45.000,31621.84485,1.91553,406.806,34.250,45.071,45.000,0.00,0.09,-272.78,-272.83,-9,532,-938,21.8,21.3,-1.3,21.6,22.0,-1.0,5.73,1.95,-7.9,27.3
2016-05-27 00:58:00,0.0,1.90170,0.00030,403.212,0.033,0.7241,0.0024,139.999,45.000,31623.26285,1.91557,406.803,34.250,45.071,45.000,0.00,0.09,-272.77,-272.83,-7,527,-939,21.8,21.2,-1.3,21.6,21.9,-1.1,5.73,2.10,-7.9,27.3
2016-05-27 00:59:00,0.0,1.90173,0.00034,403.217,0.039,0.7222,0.0020,140.000,45.000,31623.77323,1.91556,406.801,34.250,45.071,45.000,0.00,0.09,-272.77,-272.83,-9,529,-939,21.8,21.2,-1.4,21.6,21.9,-1.1,5.73,1.77,-7.9,27.3
2016-05-27 01:00:00,0.0,1.90203,0.00052,403.232,0.035,0.7229,0.0020,140.001,45.000,31622.14084,1.91585,406.817,34.261,45.071,45.000,0.00,0.09,-272.78,-272.83,-8,532,-939,21.8,21.2,-1.4,21.6,21.8,-1.1,5.73,1.98,-7.9,27.3
2016-05-27 01:01:00,0.0,1.90203,0.00047,403.233,0.030,0.7195,0.0022,140.001,45.000,31623.03116,1.91581,406.803,34.266,45.071,45.000,0.00,0.09,-272.77,-272.83,-8,531,-938,21.8,21.1,-1.4,21.6,21.8,-1.2,5.73,2.08,-7.9,27.3
2016-05-27 01:02:00,0.0,1.90192,0.00037,403.240,0.029,0.7162,0.0020,139.999,45.000,31623.96933,1.91563,406.792,34.272,45.071,45.000,0.00,0.09,-272.77,-272.83,-9,530,-939,21.8,21.0,-1.5,21.6,21.7,-1.2,5.73,1.75,-7.8,27.3
2016-05-27 01:03:00,0.0,1.90195,0.00039,403.254,0.026,0.7153,0.0020,139.997,45.000,31622.59763,1.91564,406.801,34.278,45.071,45.000,0.00,0.09,-272.78,-272.83,-8,532,-939,21.8,21.0,-1.5,21.6,21.6,-1.3,5.73,2.01,-7.8,27.3
2016-05-27 01:04:00,0.0,1.90188,0.00032,403.231,0.029,0.7199,0.0023,139.999,45.000,31623.21408,1.91564,406.801,34.288,45.071,45.000,0.00,0.09,-272.77,-272.84,-7,532,-939,21.8,21.1,-1.5,21.6,21.7,-1.2,5.73,2.05,-7.9,27.4
2016-05-27 01:05:00,0.0,1.90175,0.00032,403.202,0.032,0.7209,0.0020,139.998,45.000,31623.43641,1.91555,406.780,34.308,45.071,45.000,0.00,0.09,-272.76,-272.84,-8,532,-939,21.8,21.1,-1.4,21.6,21.8,-1.2,5.73,1.75,-7.8,27.4
2016-05-27 01:06:00,0.0,1.90187,0.00047,403.242,0.038,0.7207,0.0022,140.001,45.000,31623.58138,1.91568,406.815,34.312,45.070,45.000,0.00,0.09,-272.78,-272.84,-9,532,-939,21.8,21.1,-1.4,21.6,21.8,-1.1,5.73,2.05,-7.8,27.4
2016-05-27 01:07:00,0.0,1.90182,0.00037,403.254,0.029,0.7159,0.0023,139.998,45.000,31623.63837,1.91551,406.805,34.313,45.071,45.000,0.00,0.09,-272.77,-272.84,-8,532,-938,21.8,21.0,-1.5,21.6,21.7,-1.2,5.73,2.02,-7.9,27.4
2016-05-27 01:08:00,0.0,1.90199,0.00035,403.249,0.026,0.7162,0.0018,139.998,45.000,31624.48734,1.91571,406.802,34.313,45.071,45.000,0.00,0.09,-272.77,-272.83,-8,532,-939,21.8,21.0,-1.5,21.6,21.6,-1.3,5.73,1.75,-7.8,27.4
2016-05-27 01:09:00,0.0,1.90177,0.00035,403.250,0.037,0.7172,0.0024,140.000,45.000,31625.34621,1.91547,406.806,34.319,45.071,45.000,0.00,0.09,-272.78,-272.84,-9,532,-939,21.8,21.0,-1.5,21.6,21.7,-1.3,5.73,2.08,-7.8,27.4
2016-05-27 01:10:00,0.0,1.90175,0.00052,403.261,0.027,0.7152,0.0022,140.000,45.000,31625.27355,1.91545,406.808,34.318,45.071,45.000,0.00,0.09,-272.78,-272.84,-8,532,-939,21.8,20.9,-1.5,21.6,21.6,-1.2,5.73,1.98,-7.8,27.4
2016-05-27 01:11:00,0.0,1.90190,0.00033,403.288,0.040,0.7136,0.0026,140.001,45.000,31625.06761,1.91556,406.827,34.346,45.071,45.000,0.00,0.09,-272.78,-272.83,-7,532,-939,21.8,20.9,-1.5,21.6,21.6,-1.3,5.73,1.76,-7.8,27.4
2016-05-27 01:12:00,0.0,1.90185,0.00024,403.297,0.035,0.7138,0.0028,140.001,45.000,31625.57649,1.91550,406.837,34.366,45.071,45.000,0.00,0.09,-272.78,-272.83,-8,532,-939,21.8,20.9,-1.6,21.6,21.6,-1.3,5.73,2.11,-7.8,27.4
2016-05-27 01:13:00,0.0,1.90217,0.00035,403.321,0.029,0.7094,0.0022,140.000,45.000,31623.85344,1.91573,406.839,34.375,45.070,45.000,0.00,0.09,-272.78,-272.84,-9,532,-939,21.8,20.8,-1.6,21.6,21.4,-1.4,5.73,1.94,-7.8,27.4
2016-05-27 01:14:00,0.0,1.90232,0.00031,403.293,0.025,0.7097,0.0021,140.000,45.000,31623.48082,1.91591,406.813,34.375,45.070,45.000,0.00,0.09,-272.77,-272.83,-8,532,-939,21.8,20.8,-1.6,21.6,21.4,-1.4,5.73,1.78,-7.8,27.4
2016-05-27 01:15:00,0.0,1.90226,0.00041,403.318,0.031,0.7111,0.0023,140.000,45.000,31623.43286,1.91588,406.845,34.375,45.071,45.000,0.00,0.09,-272.77,-272.82,-8,532,-939,21.8,20.8,-1.6,21.6,21.5,-1.4,5.73,2.13,-7.8,27.4
2016-05-27 01:16:00,0.0,1.90201,0.00031,403.330,0.035,0.7090,0.0022,139.999,45.000,31624.03902,1.91558,406.846,34.380,45.071,45.000,0.00,0.09,-272.77,-272.84,-9,532,-939,21.8,20.8,-1.6,21.6,21.4,-1.4,5.73,1.90,-7.8,27.4
2016-05-27 01:17:00,0.0,1.90178,0.00034,403.315,0.027,0.7159,0.0040,140.003,45.000,31627.59018,1.91548,406.865,34.386,45.071,45.000,0.00,0.09,-272.77,-272.83,-8,532,-939,21.8,21.0,-1.5,21.6,21.5,-1.3,5.73,1.81,-7.8,27.4
2016-05-27 01:18:00,0.0,1.90171,0.00040,403.318,0.034,0.7214,0.0018,140.000,45.000,31626.89314,1.91554,406.897,34.391,45.071,45.000,0.00,0.09,-272.77,-272.83,-7,532,-939,21.8,21.1,-1.4,21.6,21.7,-1.2,5.73,2.14,-7.8,27.4
2016-05-27 01:19:00,0.0,1.90170,0.00036,403.316,0.031,0.7227,0.0020,140.000,45.000,31625.24133,1.91554,406.901,34.398,45.070,45.000,0.00,0.09,-272.77,-272.84,-8,532,-939,21.8,21.2,-1.4,21.6,21.8,-1.1,5.73,1.85,-7.8,27.4
2016-05-27 01:20:00,0.0,1.90187,0.00035,403.332,0.025,0.7200,0.0023,140.001,45.000,31626.84099,1.91565,406.904,34.424,45.070,45.000,0.00,0.09,-272.78,-272.84,-9,532,-939,21.8,21.1,-1.5,21.6,21.7,-1.2,5.73,1.85,-7.8,27.4
2016-05-27 01:21:00,0.0,1.90189,0.00041,403.310,0.032,0.7198,0.0019,139.999,45.000,31627.18428,1.91565,406.882,34.402,45.070,45.000,0.00,0.09,-272.77,-272.83,-7,532,-939,21.8,21.1,-1.4,21.7,21.7,-1.2,5.73,2.14,-7.8,27.3
2016-05-27 01:22:00,0.0,1.90182,0.00039,403.322,0.032,0.7169,0.0019,140.001,45.000,31628.73219,1.91555,406.878,34.404,45.071,45.000,0.00,0.09,-272.77,-272.83,-8,532,-939,21.8,21.0,-1.5,21.6,21.7,-1.2,5.73,1.81,-7.8,27.4
2016-05-27 01:23:00,0.0,1.90152,0.00042,403.312,0.023,0.7157,0.0030,140.001,45.000,31629.00601,1.91523,406.861,34.390,45.071,45.000,0.00,0.09,-272.79,-272.84,-9,532,-939,21.8,20.9,-1.5,21.6,21.6,-1.2,5.73,1.89,-7.8,27.4
2016-05-27 01:24:00,0.0,1.90181,0.00043,403.329,0.029,0.7159,0.0024,139.998,45.000,31626.68059,1.91550,406.881,34.382,45.071,45.000,0.00,0.09,-272.78,-272.84,-8,532,-939,21.8,20.9,-1.5,21.7,21.6,-1.2,5.73,2.12,-7.8,27.4
2016-05-27 01:25:00,0.0,1.90167,0.00037,403.361,0.038,0.7142,0.0019,139.997,45.000,31628.16294,1.91533,406.903,34.407,45.071,45.000,0.00,0.09,-272.76,-272.83,-7,532,-939,21.8,20.9,-1.5,21.6,21.6,-1.3,5.73,1.78,-7.7,27.4
2016-05-27 01:26:00,0.0,1.90195,0.00048,403.337,0.031,0.7147,0.0019,139.999,45.000,31627.65244,1.91564,406.884,34.425,45.071,45.000,0.00,0.09,-272.78,-272.83,-8,532,-939,21.8,20.9,-1.5,21.6,21.6,-1.3,5.73,1.94,-7.7,27.4
2016-05-27 01:27:00,0.0,1.90183,0.00029,403.366,0.032,0.7106,0.0019,139.997,45.000,31628.39719,1.91545,406.890,34.409,45.071,45.000,0.00,0.09,-272.79,-272.84,-9,532,-939,21.8,20.8,-1.6,21.6,21.5,-1.3,5.73,2.10,-7.8,27.4
2016-05-27 01:28:00,0.0,1.90201,0.00041,403.377,0.031,0.7100,0.0017,140.000,45.000,31627.77770,1.91556,406.899,34.405,45.071,45.000,0.00,0.09,-272.77,-272.83,-8,532,-939,21.8,20.7,-1.6,21.7,21.4,-1.3,5.73,1.76,-7.7,27.4
2016-05-27 01:29:00,0.0,1.90186,0.00031,403.353,0.026,0.7120,0.0024,140.002,45.000,31629.83630,1.91551,406.885,34.389,45.071,45.000,0.00,0.09,-272.78,-272.83,-8,531,-939,21.9,20.8,-1.6,21.6,21.4,-1.3,5.73,2.00,-7.7,27.4
2016-05-27 01:30:00,0.0,1.90210,0.00032,403.345,0.030,0.7128,0.0019,140.001,45.000,31629.02582,1.91571,406.880,34.403,45.071,45.000,0.00,0.09,-272.78,-272.84,-9,532,-939,21.8,20.8,-1.6,21.7,21.5,-1.3,5.73,2.06,-7.7,27.4
2016-05-27 01:31:00,0.0,1.90181,0.00040,403.355,0.032,0.7101,0.0020,139.999,45.000,31631.25295,1.91543,406.877,34.386,45.071,45.000,0.00,0.09,-272.77,-272.84,-8,532,-939,21.9,20.7,-1.6,21.7,21.4,-1.3,5.73,1.75,-7.7,27.4
2016-05-27 01:32:00,0.0,1.90175,0.00047,403.348,0.040,0.7126,0.0023,139.999,45.000,31631.93565,1.91539,406.883,34.396,45.071,45.000,0.00,0.09,-272.77,-272.83,-7,532,-939,21.9,20.8,-1.6,21.7,21.4,-1.3,5.73,2.05,-7.7,27.4
2016-05-27 01:33:00,0.0,1.90184,0.00038,403.341,0.036,0.7146,0.0023,139.998,45.000,31631.41054,1.91551,406.885,34.430,45.071,45.000,0.00,0.09,-272.78,-272.84,-9,532,-939,21.9,20.9,-1.5,21.7,21.5,-1.3,5.73,2.00,-7.7,27.4
2016-05-27 01:34:00,0.0,1.90170,0.00039,403.354,0.033,0.7116,0.0024,139.999,45.000,31631.43048,1.91533,406.884,34.437,45.071,45.000,0.00,0.09,-272.77,-272.84,-9,532,-939,21.9,20.7,-1.6,21.7,21.5,-1.3,5.73,1.76,-7.7,27.4
2016-05-27 01:35:00,0.0,1.90191,0.00042,403.356,0.036,0.7125,0.0021,140.000,45.000,31631.17102,1.91552,406.889,34.440,45.070,45.000,0.00,0.09,-272.77,-272.83,-8,532,-939,21.9,20.8,-1.6,21.7,21.4,-1.3,5.73,2.09,-7.7,27.4
2016-05-27 01:36:00,0.0,1.90200,0.00025,403.356,0.035,0.7107,0.0022,139.997,45.000,31630.99136,1.91560,406.882,34.438,45.070,45.000,0.00,0.09,-272.77,-272.84,-8,531,-939,21.9,20.7,-1.6,21.7,21.4,-1.3,5.73,1.94,-7.7,27.4
2016-05-27 01:37:00,0.0,1.90195,0.00039,403.369,0.034,0.7091,0.0020,140.000,45.000,31633.42558,1.91554,406.884,34.440,45.070,45.000,0.00,0.09,-272.78,-272.84,-9,532,-939,21.9,20.7,-1.6,21.7,21.4,-1.4,5.73,1.78,-7.7,27.5
2016-05-27 01:38:00,0.0,1.90215,0.00033,403.373,0.027,0.7110,0.0030,139.999,45.000,31631.29493,1.91572,406.900,34.443,45.070,45.000,0.00,0.09,-272.78,-272.83,-8,532,-939,21.9,20.7,-1.6,21.7,21.4,-1.3,5.73,2.13,-7.7,27.5
2016-05-27 01:39:00,0.0,1.90222,0.00033,403.360,0.028,0.7129,0.0030,140.000,45.000,31631.25251,1.91588,406.897,34.441,45.070,45.000,0.00,0.09,-272.77,-272.83,-8,532,-939,21.9,20.8,-1.6,21.7,21.4,-1.3,5.73,1.88,-7.7,27.5
2016-05-27 01:40:00,0.0,1.90207,0.00034,403.382,0.029,0.7101,0.0024,140.001,45.000,31633.37128,1.91567,406.903,34.442,45.070,45.000,0.00,0.09,-272.78,-272.84,-9,532,-939,21.9,20.7,-1.6,21.7,21.4,-1.3,5.73,1.83,-7.7,27.5
2016-05-27 01:41:00,0.0,1.90211,0.00042,403.362,0.030,0.7130,0.0022,139.999,45.000,31633.38064,1.91576,406.900,34.457,45.071,45.000,0.00,0.09,-272.78,-272.83,-8,532,-939,21.9,20.7,-1.6,21.7,21.4,-1.3,5.73,2.14,-7.7,27.4
2016-05-27 01:42:00,0.0,1.90184,0.00050,403.374,0.029,0.7106,0.0022,139.999,45.000,31633.66116,1.91545,406.897,34.449,45.071,45.000,0.00,0.09,-272.77,-272.83,-7,532,-939,21.9,20.7,-1.6,21.7,21.3,-1.3,5.73,1.82,-7.7,27.5
2016-05-27 01:43:00,0.0,1.90200,0.00038,403.345,0.036,0.7131,0.0014,140.001,45.000,31634.70346,1.91564,406.882,34.445,45.071,45.000,0.00,0.09,-272.78,-272.84,-8,532,-939,21.9,20.8,-1.6,21.7,21.4,-1.3,5.73,1.89,-7.7,27.5
2016-05-27 01:44:00,0.0,1.90193,0.00039,403.328,0.042,0.7164,0.0013,140.001,45.000,31634.44703,1.91563,406.882,34.475,45.071,45.000,0.00,0.09,-272.78,-272.84,-9,532,-939,21.9,20.9,-1.5,21.7,21.5,-1.3,5.73,2.12,-7.7,27.5
2016-05-27 01:45:00,0.0,1.90184,0.00032,403.324,0.023,0.7163,0.0017,140.001,45.000,31636.24468,1.91555,406.877,34.495,45.071,45.000,0.00,0.09,-272.77,-272.83,-8,532,-939,21.9,20.9,-1.5,21.7,21.5,-1.2,5.73,1.76,-7.7,27.5